FW7772 Weather Reports


Display with metric or nautical units.
time (UTC)temp
F
wind
direction
speed
MPH
gust
MPH
rain 1hr
in
rain 24hr
in
rain mn
in
humidity
%
barometer
mb
20260906093102 63 289 8.0 14.0 0.00 0.00 0.00 57 1013.9
20260906092101 63 305 6.0 12.0 0.00 0.00 0.00 59 1013.9
20260906091101 62 314 3.0 8.0 0.00 0.00 0.00 59 1013.9
20260906085101 61 223 4.0 6.0 0.00 0.00 0.00 68 1013.9
20260906084101 60 221 4.0 8.0 0.00 0.00 0.00 68 1013.8
20260906083101 59 300 5.0 10.0 0.00 0.00 0.00 68 1013.7
20260906082101 58 262 4.0 8.0 0.00 0.00 0.00 69 1013.7
20260906081100 58 262 4.0 8.0 0.00 0.00 0.00 70 1013.6
20260906080103 57 224 3.0 6.0 0.00 0.00 0.00 71 1013.6
20260906075102 56 300 2.0 5.0 0.00 0.00 0.00 74 1013.6
20260906074102 55 310 1.0 3.0 0.00 0.00 0.00 76 1013.5
20260906073102 54 310 3.0 5.0 0.00 0.00 0.00 79 1013.5
20260906072103 53 278 3.0 5.0 0.00 0.00 0.00 80 1013.3
20260906071102 51 293 3.0 5.0 0.00 0.00 0.00 82 1013.3
20260906070101 50 283 4.0 7.0 0.00 0.00 0.00 84 1013.2
20260906065101 50 295 6.0 10.0 0.00 0.00 0.00 87 1013.2
20260906064541 47 283 5.0 9.0 0.00 0.00 0.00 94 1013.1
20260906063101 44 293 4.0 6.0 0.00 0.00 0.00 94 1012.9
20260906062101 43 294 4.0 8.0 0.00 0.00 0.00 94 1012.8
20260906061540 41 310 2.0 4.0 0.00 0.00 0.00 93 1012.8
20260906055101 39 261 1.0 4.0 0.00 0.00 0.00 93 1012.8
20260906054101 38 229 1.0 3.0 0.00 0.00 0.00 92 1012.7
20260906053103 38 287 1.0 2.0 0.00 0.00 0.00 92 1012.5
20260906052101 38 254 2.0 4.0 0.00 0.00 0.00 92 1012.6
20260906051101 37 238 2.0 5.0 0.00 0.00 0.00 91 1012.5
20260906050544 37 226 2.0 4.0 0.00 0.00 0.00 91 1012.5
20260906045102 37 224 1.0 3.0 0.00 0.00 0.00 91 1012.3
20260906045022 37 235 1.0 2.0 0.00 0.00 0.00 91 1012.1
20260906043101 37 235 1.0 2.0 0.00 0.00 0.00 91 1012.1
20260906042102 38 235 2.0 4.0 0.00 0.00 0.00 91 1012.0
20260906041101 38 269 1.0 2.0 0.00 0.00 0.00 91 1011.8
20260906041034 38 221 1.0 2.0 0.00 0.00 0.00 91 1011.6
20260906035101 38 221 1.0 3.0 0.00 0.00 0.00 90 1011.6
20260906034101 38 305 2.0 3.0 0.00 0.00 0.00 90 1011.6
20260906033059 38 305 1.0 3.0 0.00 0.00 0.00 91 1011.3
20260906032058 39 305 0.0 0.0 0.00 0.00 0.00 90 1011.2
20260906031056 39 305 0.0 0.0 0.00 0.00 0.00 90 1011.3
20260906031006 39 305 1.0 3.0 0.00 0.00 0.00 90 1011.2
20260906025539 39 305 2.0 3.0 0.00 0.00 0.00 90 1011.1
20260906024055 39 274 3.0 4.0 0.00 0.00 0.00 90 1011.0
20260906023055 40 290 2.0 4.0 0.00 0.00 0.00 90 1010.8
20260906022056 40 279 3.0 4.0 0.00 0.00 0.00 90 1010.7
20260906021054 40 219 1.0 3.0 0.00 0.00 0.00 90 1010.5
20260906020055 40 250 2.0 4.0 0.00 0.00 0.00 90 1010.3
20260906015056 40 239 3.0 6.0 0.00 0.00 0.00 90 1010.3
20260906014055 41 210 2.0 4.0 0.00 0.00 0.00 90 1010.2
20260906013055 41 239 2.0 4.0 0.00 0.00 0.00 90 1010.1
20260906012054 41 286 3.0 5.0 0.00 0.00 0.00 90 1010.0
20260906011530 41 318 3.0 6.0 0.00 0.00 0.00 90 1009.8
20260906010054 41 305 3.0 6.0 0.00 0.00 0.00 90 1009.7
20260906005055 42 255 4.0 7.0 0.00 0.00 0.00 90 1009.6
20260906004528 42 266 3.0 8.0 0.00 0.00 0.00 89 1009.4
20260906003053 42 292 3.0 5.0 0.00 0.00 0.00 89 1009.4
20260906002053 42 251 1.0 4.0 0.00 0.00 0.00 89 1009.3
20260906001052 42 354 3.0 8.0 0.00 0.00 0.00 89 1009.2
20260906000050 43 300 2.0 4.0 0.00 0.00 0.00 90 1009.0
20260905235051 43 300 4.0 8.0 0.00 0.00 0.00 90 1008.8
20260905234046 43 274 4.0 8.0 0.00 0.00 0.00 89 1008.7
20260905234012 43 300 4.0 10.0 0.00 0.00 0.00 89 1008.7
20260905232047 43 294 4.0 9.0 0.00 0.00 0.00 89 1008.5
20260905232015 44 305 4.0 8.0 0.00 0.00 0.00 88 1008.4
20260905230045 44 0 4.0 9.0 0.00 0.00 0.00 89 1008.3
20260905225045 44 343 3.0 7.0 0.00 0.00 0.00 89 1008.2
20260905224044 44 334 2.0 4.0 0.00 0.00 0.00 89 1008.2
20260905223044 44 351 3.0 5.0 0.00 0.00 0.00 89 1008.1
20260905222044 44 326 3.0 7.0 0.00 0.00 0.00 89 1008.0
20260905221531 44 331 4.0 8.0 0.00 0.00 0.00 89 1007.8
20260905220044 44 327 3.0 7.0 0.00 0.00 0.00 89 1007.7
20260905215041 45 300 3.0 5.0 0.00 0.00 0.00 89 1007.6
20260905214037 45 305 4.0 7.0 0.00 0.00 0.00 89 1007.5
20260905213036 45 330 4.0 6.0 0.00 0.00 0.00 89 1007.3
20260905212036 46 305 4.0 5.0 0.00 0.00 0.00 89 1007.1
20260905211038 46 336 3.0 7.0 0.00 0.00 0.00 89 1007.0
20260905210036 46 316 4.0 8.0 0.00 0.00 0.00 89 1006.7
20260905205037 46 305 3.0 5.0 0.00 0.00 0.00 89 1006.5
20260905204037 47 322 3.0 5.0 0.00 0.00 0.00 90 1006.5
20260905203037 47 314 4.0 7.0 0.00 0.00 0.00 90 1006.3
20260905202034 47 285 4.0 6.0 0.00 0.00 0.00 90 1006.2
20260905201510 47 294 4.0 6.0 0.00 0.00 0.00 89 1006.1
20260905200035 47 283 4.0 6.0 0.00 0.00 0.00 87 1006.1
20260905195033 47 269 3.0 6.0 0.00 0.00 0.00 86 1006.0
20260905194030 48 280 3.0 4.0 0.00 0.00 0.00 85 1005.8
20260905193029 49 322 0.0 0.0 0.00 0.00 0.00 85 1005.8
20260905192030 49 322 0.0 0.0 0.00 0.00 0.00 85 1005.8
20260905191030 50 322 0.0 0.0 0.00 0.00 0.00 85 1005.7
20260905190031 51 323 0.0 2.0 0.00 0.00 0.00 85 1005.6
20260905185504 51 322 2.0 3.0 0.00 0.00 0.00 85 1005.5
20260905184502 52 322 1.0 3.0 0.00 0.00 0.00 84 1005.6
20260905183030 53 322 1.0 3.0 0.00 0.00 0.00 84 1005.3
20260905182030 54 322 1.0 3.0 0.00 0.00 0.00 83 1005.1
20260905181030 54 322 1.0 2.0 0.00 0.00 0.00 83 1004.8
20260905180510 55 322 1.0 3.0 0.00 0.00 0.00 83 1004.5
20260905175031 55 322 0.0 0.0 0.00 0.00 0.00 83 1004.4
20260905174029 56 322 1.0 2.0 0.00 0.00 0.00 84 1004.3
20260905173030 56 322 2.0 4.0 0.00 0.00 0.00 85 1004.1
20260905172030 56 291 1.0 2.0 0.00 0.00 0.00 84 1004.0
20260905171029 56 291 2.0 3.0 0.00 0.00 0.00 83 1003.8
20260905170030 57 291 3.0 5.0 0.00 0.00 0.00 78 1003.7
20260905165032 58 310 2.0 5.0 0.00 0.00 0.00 77 1003.7
20260905164030 57 316 1.0 3.0 0.00 0.00 0.00 78 1003.5
20260905163029 56 316 0.0 2.0 0.00 0.00 0.00 81 1003.4
20260905162509 56 316 0.0 2.0 0.00 0.00 0.00 80 1003.3
20260905161030 56 316 2.0 5.0 0.00 0.00 0.00 80 1003.2
20260905160029 56 262 3.0 5.0 0.00 0.00 0.00 76 1003.1
20260905155955 57 237 2.0 4.0 0.00 0.00 0.00 78 1002.9
20260905154029 58 258 3.0 4.0 0.00 0.00 0.00 74 1002.9
20260905153504 59 267 2.0 3.0 0.00 0.00 0.00 71 1002.8
20260905152029 60 257 2.0 5.0 0.00 0.00 0.00 65 1002.5
20260905151029 60 170 1.0 2.0 0.00 0.00 0.00 66 1002.4
20260905150031 61 170 1.0 3.0 0.00 0.00 0.00 58 1002.2
20260905145029 61 236 2.0 5.0 0.00 0.00 0.00 59 1002.1
20260905144029 61 210 1.0 5.0 0.00 0.00 0.00 61 1002.0
20260905143030 60 233 3.0 5.0 0.00 0.00 0.00 63 1001.9
20260905142029 61 272 3.0 5.0 0.00 0.00 0.00 61 1001.7
20260905141029 60 280 4.0 8.0 0.00 0.00 0.00 63 1001.7
20260905140029 61 248 4.0 8.0 0.00 0.00 0.00 60 1001.5
20260905135029 61 291 3.0 5.0 0.00 0.00 0.00 64 1001.4
20260905134029 60 272 4.0 8.0 0.00 0.00 0.00 62 1001.4
20260905133518 61 283 4.0 7.0 0.00 0.00 0.00 61 1001.3
20260905132030 60 277 3.0 7.0 0.00 0.00 0.00 65 1001.2
20260905131029 60 268 3.0 7.0 0.00 0.00 0.00 64 1001.2
20260905130028 59 292 4.0 8.0 0.00 0.00 0.00 65 1001.1
20260905125029 60 291 4.0 6.0 0.00 0.00 0.00 63 1001.0
20260905124512 60 270 3.0 5.0 0.00 0.00 0.00 65 1000.8
20260905123505 61 270 3.0 5.0 0.00 0.00 0.00 62 1000.9
20260905122028 61 343 2.0 5.0 0.00 0.00 0.00 62 1000.8
20260905121029 61 300 2.0 7.0 0.00 0.00 0.00 62 1000.8
20260905120029 61 324 4.0 8.0 0.00 0.00 0.00 60 1000.7
20260905115507 61 260 4.0 8.0 0.00 0.00 0.00 66 1000.6
20260905114028 61 300 4.0 8.0 0.00 0.00 0.00 63 1000.8
20260905113029 60 292 5.0 7.0 0.00 0.00 0.00 64 1000.6
20260905112030 59 291 4.0 8.0 0.00 0.00 0.00 67 1000.6
20260905111029 58 282 6.0 10.0 0.00 0.00 0.00 71 1000.5
20260905110029 58 229 7.0 12.0 0.00 0.00 0.00 69 1000.5
20260905105508 58 278 1.0 4.0 0.00 0.00 0.00 77 1000.4
20260905104029 57 310 1.0 2.0 0.00 0.00 0.00 77 1000.3
20260905103032 58 97 2.0 5.0 0.00 0.00 0.00 79 1000.3
20260905102507 58 300 3.0 7.0 0.00 0.00 0.00 70 1000.3
20260905101029 58 199 2.0 4.0 0.00 0.00 0.00 68 1000.1
20260905100029 59 226 2.0 5.0 0.00 0.00 0.00 72 1000.0
20260905095029 59 305 3.0 7.0 0.00 0.00 0.00 68 1000.0
20260905094512 60 111 1.0 4.0 0.00 0.00 0.00 68 999.9